Regional Weather Roundup
Issued by NWS

Home | Current Version | Previous Version | Graphics & Text | Print | Product List | Glossary On
Versions: 1 2 3 4 5 6 7 8 9 10 11 12 13 14 15 16 17 18 19 20 21 22 23 24 25 26 27 28 29 30 31 32 33 34 35 36 37 38 39 40 41 42 43 44 45 46 47 48 49 50
000
ASUS43 KMKX 031659
RWRWI

WISCONSIN REGIONAL WEATHER ROUNDUP
NATIONAL WEATHER SERVICE MILWAUKEE/SULLIVAN WI
1100 AM CST TUE MAR 03 2015

NOTE: "FAIR" INDICATES FEW OR NO CLOUDS BELOW 12,000 FEET WITH NO
SIGNIFICANT WEATHER AND/OR OBSTRUCTIONS TO VISIBILITY.

WIZ001-002-006>008-014>016-023>028-031800-
NORTHWEST WISCONSIN

CITY           SKY/WX    TMP DP  RH WIND       PRES   REMARKS
SUPERIOR ARPT  LGT SNOW  22  19  90 SW9       29.63F VSB 3/4 WCI  12
ASHLAND        SNOW      22  19  89 SW10      29.62F VSB 1/2 WCI  11
HAYWARD        SNOW      20  17  88 S8        29.61F VSB 1/4 WCI  10
SIREN          SNOW      22  20  91 W6        29.65F VSB 1/2 WCI  15
CUMBERLAND     LGT SNOW  21  19  93 S5        29.63F VSB 3/4 WCI  15
RICE LAKE      LGT SNOW  22  19  87 S5        29.65F VSB 3/4 WCI  16
CHETEK         LGT SNOW  22  19  89 CALM      29.63F VSB 3/4
LADYSMITH      LGT SNOW  23  19  87 S6        29.64F VSB 3/4 WCI  15
EAU CLAIRE     LGT SNOW  23  20  88 CALM      29.65F VSB 1
MENOMONIE      LGT SNOW  25  20  83 CALM      29.65F
NEW RICHMOND   LGT SNOW  24  20  83 S6        29.65S VSB 1   WCI  17
OSCEOLA        LGT SNOW  25  22  88 CALM      29.68F VSB 3/4
$$

WIZ003>005-009-010-017-018-031800-
NORTH CENTRAL WISCONSIN

CITY           SKY/WX    TMP DP  RH WIND       PRES   REMARKS
MANITOWISH WTR LGT SNOW  19  16  90 S6        29.59F VSB 1   WCI  10
ARBOR VITAE    LGT SNOW  22  18  87 S6        29.59F VSB 3/4 WCI  14
WOODRUFF       LGT SNOW  22  18  87 S6        29.59F VSB 3/4 WCI  14
RHINELANDER    LGT SNOW  20  15  81 S7        29.59F VSB 3/4 WCI  11
EAGLE RIVER    LGT SNOW  20  15  81 SW3       29.59F VSB 3/4
LAND O LAKES   LGT SNOW  20  17  86 S3        29.60F VSB 3/4
PHILLIPS       LGT SNOW  19  17  89 S6        29.59F VSB 1   WCI  11
TOMAHAWK       SNOW      20  17  87 CALM      29.62F VSB 1/2
MEDFORD        MIX PCPN  20  17  88 S3        29.62F VSB 1/2
MERRILL        HVY SNOW  21  19  91 CALM      29.62F VSB 1/4
$$

WIZ029-030-035-036-043>047-031800-
CENTRAL WISCONSIN

CITY           SKY/WX    TMP DP  RH WIND       PRES   REMARKS
WAUSAU         LGT SNOW  21  19  92 S5        29.60F VSB 3/4 WCI  15
MOSINEE        NOT AVBL
MARSHFIELD     LGT SNOW  23  19  85 SW7       29.61F VSB 1   WCI  15
STEVENS POINT  MIX PCPN  21  20  94 SW6       29.64F WCI  14
WAUPACA        CLOUDY    27  24  86 S7        29.66F FOG     WCI  20
WAUTOMA        NOT AVBL
WISC RAPIDS    CLOUDY    23  20  88 SW6       29.64F FOG     WCI  16
CAMP DOUGLAS   NOT AVBL
$$

WIZ011>013-019>022-031-037>040-048>050-031800-
NORTHEAST WISCONSIN

CITY           SKY/WX    TMP DP  RH WIND       PRES   REMARKS
ANTIGO         LGT SNOW  20  18  92 S6        29.62F VSB 1   WCI  12
SHAWANO        CLOUDY    28  24  87 CALM      29.66F FOG
OCONTO         CLOUDY    27  26  99 S6        29.67F WCI  20
STURGEON BAY   CLOUDY    28  25  86 S13G18    29.67F WCI  18
GREEN BAY      MIX PCPN  27  26  96 S7        29.65F FOG     WCI  19
MANITOWOC      NOT AVBL
APPLETON       LGT SNOW  27  25  93 S12       29.65F WCI  16
CLINTONVILLE   MIX PCPN  27  25  93 S9        29.66F WCI  17
OSHKOSH        FRZ RAIN  27  24  89 S10       29.64F FOG     WCI  17
$$

WIZ032>034-041-042-053>061-031800-
SOUTHWEST WISCONSIN

CITY           SKY/WX    TMP DP  RH WIND       PRES   REMARKS
LA CROSSE      CLOUDY    26  23  88 S5        29.66F FOG     WCI  20
SPARTA         MIX PCPN  25  24  96 CALM      29.66F
VIROQUA        CLOUDY    25  25 100 SW8       29.63F VSB 1   WCI  16
BOSCOBEL       CLOUDY    28  25  88 CALM      29.67F FOG
PRAIRIE DU CHI   N/A     27  25  93 CALM      29.68S FOG
PLATTEVILLE    CLOUDY    30  29  96 S10       29.65F WCI  21
$$

WIZ056-057-062-063-064-067-068-031800-
SOUTH CENTRAL WISCONSIN

CITY           SKY/WX    TMP DP  RH WIND       PRES   REMARKS
REEDSBURG      CLOUDY    24  23  95 S5        29.64F FOG     WCI  19
BARABOO/DELLS  FOG       25  23  93 S3        29.63F VSB 1
LONE ROCK      NOT AVBL
MINERAL POINT  CLOUDY    32  30  93 SW12      29.63F FOG     WCI  23
MADISON        FRZ DRZL  28  25  88 S6        29.64F FOG     WCI  22
MIDDLETON      CLOUDY    30  27  90 S6        29.64F WCI  24
WATERTOWN      CLOUDY    27  27 100 S6        29.65F FOG     WCI  20
MONROE         CLOUDY    30  30 100 SW17      29.64F FOG     WCI  18
JANESVILLE     FOG       30  28  93 S16       29.66F VSB 1   WCI  19
$$

WIZ051-052-058>065-066-070>072-031800-
SOUTHEAST WISCONSIN

CITY           SKY/WX    TMP DP  RH WIND       PRES   REMARKS
MILWAUKEE      SNOW      29  26  89 S10       29.65F VSB 1/2 WCI  20
WAUKESHA       LGT SNOW  27  27 100 S8        29.66F VSB 1   WCI  18
MILWAUKEE/TIMM LGT SNOW  28  27  93 S8        29.66F WCI  20
RACINE         FRZ RAIN  30  27  88 S12       29.66F FOG     WCI  20
BURLINGTON     MIX PCPN  29  28  94 S15       29.65F WCI  18
KENOSHA        FRZ RAIN  30  29  96 SW13      29.65F VSB 1   WCI  20
FOND DU LAC    FRZ RAIN  27  24  89 S8        29.64F FOG     WCI  19
SHEBOYGAN      LGT SNOW  28  26  92 S16       29.65F FOG     WCI  16
WEST BEND      MIX PCPN  28  27  93 S6        29.65F WCI  22
JUNEAU         MIX PCPN  27  25  94 S12       29.66F WCI  16
$$

LSZ147-162-031800-
LAKE SUPERIOR

STATION/POSITION TIME  TEMP    WIND        PRES    WAVE
                       AIR SEA DIR/SP/G            HT/PER
                 (UTC) (F)     (DEG/KT/KT) (MB)    (FT/S)
DEVILS ISLAND    1600   21     190/  7/  9 1004.9F
PORT WING        1600   22     200/  7/ 11 1004.4F
SAXON HARBOR     1640   22     200/  3/ 10 1003.4F
$$

LMZ867-665-643>646-031800-
LAKE MICHIGAN

STATION/POSITION TIME  TEMP    WIND        PRES    WAVE
                       AIR SEA DIR/SP/G            HT/PER
                 (UTC) (F)     (DEG/KT/KT) (MB)    (FT/S)
NORTHPORT PIER   1606   27     150/ 11/ 22 1006.4F
SISTER BAY       1613   28     170/ 15/ 21   N/A
KEWAUNEE LAKESHO 1600   29                 1005.3
SHEBOYGAN LAKESH 1600   28     160/ 27/ 31 1006.3F
PORT WASHINGTON  1602   29     170/ 18     1006.4F
MILWAUKEE LAKESH 1600   29     170/ 17/ 21   N/A
KENOSHA   LAKESH 1600   29     180/ 11/ 15 1005.8F
$$

TC  - TEMPERATURE IN CELSIUS
VSB - VISIBILITY IN STATUTE MILES
WCI - WIND CHILL INDEX
HX  - HEAT INDEX




USA.gov is the U.S. government's official web portal to all federal, state and local government web resources and services.